Starlink 4150

operational
NORAD ID: 53134 Int'l Des: 2022-083 Owner: SPXS Country: US Constellation: starlink
LEOCIRCULAR

Über Starlink 4150

Beschreibung wird geladen...

Live-Position

3D-Globus wird geladen...

Nächste Überflüge

Höhenverlauf

Altitude vs Time

uPlot chart will show altitude changes over time

Zweizeiliger Elementsatz

1 53134U 22083C 25354.78274316 .00000127 00000-0 26051-4 0 9996
2 53134 53.2168 168.3474 0001445 92.2077 267.9081 15.08836737189309
Epoch: 20. Dez. 2025 • Age: 7 hours

Aktueller Status

Höhe 539.7 km
Geschwindigkeit 7.60 km/s
Subsatellitenpunkt 18.53°N, 144.84°W
Startdatum 17. Juli 2022
Alter 3.4 years
Typ internet

Technische Details

Klassifizierung Payload
Masse 297.00 kg
Trockenmasse 275.00 kg
Gesamtmasse 297.00 kg
Länge 0.20 m
Durchmesser 2.80 m
Spannweite 9.00 m
Form Box + pan
Hersteller SPXS
Bus-Typ Starlink
Phasenstatus In Orbit
Besitzer/Staat SPXS/US

Große Konstellationen

Loading constellations...